Ana Sayfa
METAR-TAF:

METAR-TAF

Havaalanları :

Fairfield County Airport

Lancaster, Ohio, Amerika Birleşik Devletleri

Enlem: 39-45-26N, Boylam: 082-39-48W, yükseklik: 264 m

Güncel hava durumu gözlemi

Rapor saat 09:53 UTC de 40 dakika önce yapıldı.
Rüzgar batı/güneybatıdan 5 kt
Sıcaklık -7°C
Nem 73%
Basınç 1028 hPa
Görüş mesafesi: 16.1 km
Açık gökyüzü

METAR: KLHQ 110953Z AUTO 24005KT 10SM CLR M07/M11 A3037 RMK AO2 SLP297 T10721111

Saat: 05:33 (10:33 UTC)


TAF: eksik

4.000'den fazla havaalanı için hava durumu gözlemleri ve tahminleri (METAR ve TAF raporları).

Kullanılabilir istasyonlar harita üzerinde sarı ve kırmızı noktalarla gösterilir.

İstasyonun adını görmek için fareyi noktanın üzerinde gezdirin.

Sonrasında hava gözlem ve tahminlerini görmek için tıklayın.

Haritayı değiştirmek için: yaklaştırmak için siyah artı işaretli yeşil düğmeye ve uzaklaştırmak için de eksi işaretli düğmeye hızla tıklayın; bitişik haritalar için yeşil okları kullanın.


METAR-TAF: